{"data":{"norad_id":82854,"intl_designator":"","name":"UNKNOWN","alt_names":[],"object_type":"UNKNOWN","status":"UNKNOWN","operator":null,"country":null,"launch_date":null,"launch_site_code":null,"launch_vehicle":null,"mission":null,"orbit_class":"UNKNOWN","rcs_meters":null,"size_class":null,"mass_kg":null,"dimensions":null,"purposes":[],"wikipedia_slug":null,"has_3d_model":false,"image_url":null,"decayed_at":null,"tle_current":{"epoch":"2026-05-19T04:16:07.441824Z","epoch_age_seconds":572002,"freshness":"STALE","line1":"1 82854U          26139.17786391  .00001065  00000+0  81920-3 0  9994","line2":"2 82854  82.6861 301.0573 0129908 194.2704 165.4777 13.88376446629649","mean_motion":13.88376446,"eccentricity":0.0129908,"inclination_deg":82.6861,"raan_deg":301.0573,"arg_perigee_deg":194.2704,"mean_anomaly_deg":165.4777,"bstar":0.0008192,"rev_number":62964,"period_min":103.71826777591,"perigee_km":839.33128164821,"apogee_km":1029.3207710131,"semimajor_km":7312.4630263307,"source":"CELESTRAK","updated_at":"2026-05-25T13:38:11.196269Z"}}}